This is the latest recevied weather packets stored in our database for station/object WA9SDJ-13. If no packets are shown the sender has not sent any weather packets the latest 1 day(s).
| Time | Temp. | Humidity | Pressure | Rain* | Wind** | Luminosity | Snow |
|---|---|---|---|---|---|---|---|
| 1778082598 | 12.22° C | 78% | 1013.8 hPa | 0 mm | - | 169 W/m² | - |
| 1778082538 | 12.22° C | 78% | 1013.6 hPa | 0 mm | - | 172 W/m² | - |
| 1778082478 | 12.22° C | 78% | 1013.6 hPa | 0 mm | - | 202 W/m² | - |
| 1778082418 | 12.22° C | 78% | 1013.6 hPa | 0 mm | - | 222 W/m² | - |
| 1778082358 | 12.22° C | 78% | 1013.4 hPa | 0 mm | - | 234 W/m² | - |
| 1778082298 | 12.22° C | 78% | 1013.4 hPa | 0 mm | - | 243 W/m² | - |
| 1778082238 | 12.22° C | 78% | 1013.3 hPa | 0 mm | - | 253 W/m² | - |
| 1778082178 | 12.22° C | 78% | 1013.3 hPa | 0 mm | - | 260 W/m² | - |
| 1778082118 | 12.22° C | 78% | 1013.3 hPa | 0 mm | - | 250 W/m² | - |
| 1778082058 | 12.22° C | 79% | 1013.3 hPa | 0 mm | - | 248 W/m² | - |
| 1778081998 | 12.22° C | 78% | 1013.3 hPa | 0 mm | - | 237 W/m² | - |
| 1778081938 | 12.22° C | 78% | 1013.4 hPa | 0 mm | - | 218 W/m² | - |
| 1778081878 | 12.22° C | 78% | 1013.3 hPa | 0 mm | - | 199 W/m² | - |
| 1778081818 | 12.22° C | 79% | 1013.4 hPa | 0 mm | - | 190 W/m² | - |
| 1778081638 | 12.22° C | 79% | 1013.4 hPa | 0 mm | - | 236 W/m² | - |
| 1778081578 | 12.22° C | 79% | 1013.2 hPa | 0 mm | - | 236 W/m² | - |
| 1778081518 | 12.22° C | 79% | 1013.3 hPa | 0 mm | - | 236 W/m² | - |
| 1778081458 | 12.22° C | 79% | 1013.3 hPa | 0 mm | - | 250 W/m² | - |
| 1778081217 | 11.67° C | 81% | 1013.3 hPa | 0 mm | - | 274 W/m² | - |
| 1778081096 | 11.67° C | 79% | 1013.3 hPa | 0 mm | - | 169 W/m² | - |
| 1778080255 | 11.67° C | 81% | 1013.1 hPa | 0 mm | - | 179 W/m² | - |
| 1778080196 | 11.67° C | 82% | 1013.2 hPa | 0 mm | - | 172 W/m² | - |
| 1778080136 | 11.67° C | 82% | 1013.3 hPa | 0 mm | - | 160 W/m² | - |
| 1778079895 | 11.67° C | 83% | 1013.4 hPa | 0 mm | - | 142 W/m² | - |
| 1778079835 | 12.22° C | 83% | 1013.3 hPa | 0 mm | - | 139 W/m² | - |
* Rain latest hour (hover to see other rain measurements)
** Current wind speed in m/s (hover to see current wind gust speed)